Location: Cazavet
(43.0017°N, 1.0431°E)
Time: 09:51:55
(UTC+00:00)

NOAA 12 - Pass Details

Date: 18 January 2026
Orbit: 792 x 813 km, 98.6° (Epoch: 10 February)

Event Time Altitude Azimuth Distance (km) Brightness Sun altitude
Rises 05:02:35 0° 14° (NNE) 3,302 7.4 -25.3°
Reaches altitude 10° 05:04:55 10° 15° (NNE) 2,368 6.6 -24.8°
Maximum altitude 05:10:09 84° 104° (ESE) 803 4.0 -23.9°
Drops below altitude 10° 05:15:22 10° 193° (SSW) 2,358 6.5 -22.9°
Sets 05:17:41 0° 194° (SSW) 3,286 7.2 -22.5°
